Home   Weather   Olongapo   Past weeks

Flag for Philippines Past Weather in Olongapo, Philippines — Yesterday and Last 2 Weeks

Now
88 °F

Scattered clouds.


Feels Like: 91 °F
Forecast: 79 / 91 °F
Wind: 16 mph from Northeast

Location: Subic Bay Weather Station

Current Time: Dec 3, 2016 at 12:39:19 pm

Latest Report: Dec 3, 2016 at 12:00 pm


Visibility: N/A

Pressure: 29.89 "Hg

Humidity: 52%

Dew Point: 68 °F

Location of OlongapoLocation

Past Weather in Olongapo — Graph

°F

Olongapo Temperature Yesterday

Maximum temperature yesterday: 90 °F (at 12:00 pm)
Minimum temperature yesterday: 75 °F (at 2:00 am)
Average temperature yesterday: 82 °F

High & Low Weather Summary for the Past Weeks

 TemperatureHumidityPressure
High91 °F (Nov 20, 1:00 pm)100% (Nov 25, 6:00 am)29.95 "Hg (Nov 25, 6:00 am)
Low73 °F (Nov 24, 2:00 am)46% (Nov 22, 12:00 pm)29.71 "Hg (Nov 18, 2:00 pm)
Average82 °F71%29.82 "Hg
* Reported Nov 18 11:00 am — Dec 3 11:00 am, Olongapo, Weather by CustomWeather, © 2016

Note: Actual official high and low records may vary slightly from our data, if they occured in-between our weather recording intervals... More about our weather records

Advertising

Olongapo Weather History for the Previous 24 Hours

Scroll right to see more
 ConditionsComfort  
Time TempWeatherWind HumidityBarometerVisibility
11:00 am
Sat, Dec 3
88 °FScattered clouds.12 mph55%29.92 "HgN/A
10:00 am88 °FScattered clouds.16 mph52%29.95 "HgN/A
9:00 am84 °FScattered clouds.21 mph58%29.95 "HgN/A
8:00 am82 °FScattered clouds.12 mph62%29.92 "HgN/A
7:00 am79 °FPassing clouds.1 mph70%29.92 "HgN/A
6:00 am77 °FPassing clouds.2 mph74%29.89 "HgN/A
5:00 am79 °FPassing clouds.5 mph70%29.89 "HgN/A
4:00 am77 °FPassing clouds.1 mph74%29.86 "HgN/A
3:00 am77 °FPassing clouds.2 mph79%29.86 "HgN/A
2:00 am79 °FPassing clouds.16 mph74%29.86 "HgN/A
1:00 am79 °FPassing clouds.16 mph70%29.89 "HgN/A
12:00 am79 °FPassing clouds.12 mph74%29.89 "HgN/A
11:00 pm
Fri, Dec 2
79 °FPassing clouds.12 mph70%29.92 "HgN/A
10:00 pm81 °FPassing clouds.14 mph70%29.92 "HgN/A
9:00 pm81 °FPassing clouds.14 mph70%29.89 "HgN/A
8:00 pm82 °FPassing clouds.14 mph70%29.89 "HgN/A
7:00 pm82 °FPassing clouds.14 mph70%29.89 "HgN/A
6:00 pm82 °FPassing clouds.9 mph70%29.86 "HgN/A
5:00 pm84 °FPassing clouds.16 mph66%29.86 "HgN/A
4:00 pm86 °FScattered clouds.18 mph62%29.86 "HgN/A
3:00 pm86 °FPartly sunny.16 mph62%29.86 "HgN/A
2:00 pm84 °FPartly sunny.7 mph62%29.89 "HgN/A
1:00 pm90 °FPartly sunny.17 mph55%29.89 "HgN/A
12:00 pm90 °FScattered clouds.17 mph52%29.92 "HgN/A
Weather by CustomWeather, © 2016

See weather overviewHow to use our weather pages